Location: Unspecified
(0.0000°N, 0.0000°E)
Time: 12:20:29
(UTC+00:00)

STARLINK-36491 - Pass Details

Date: 15 February 2026
Orbit: 482 x 484 km, 43.0° (Epoch: 8 March)

Event Time Altitude Azimuth Distance (km) Brightness Sun altitude
Rises 19:36:21 0° 212° (SSW) 2,537 ? -20.1°
Reaches altitude 10° 19:38:38 10° 203° (SSW) 1,658 ? -20.6°
Enters shadow 19:41:26 33° 161° (SSE) 824 ? -21.3°
